owner,sensor,date,latitude,longitude,vertical_datum,sea_water_temperature,qcFlag
Walter,ioos:station:wmo:42896:2,2021-08-12T18:41:00Z,28.3100,-89.9229,30.0,27.6,11111222
Walter,ioos:station:wmo:42896:2,2021-08-12T18:46:00Z,28.3100,-89.9229,30.0,27.6,11111222
Walter,ioos:station:wmo:42896:2,2021-08-12T18:51:00Z,28.3100,-89.9229,30.0,27.7,11111222
Walter,ioos:station:wmo:42896:2,2021-08-12T19:01:00Z,28.3100,-89.9229,30.0,27.2,11111222
Walter,ioos:station:wmo:42896:2,2021-08-12T19:11:00Z,28.3100,-89.9229,30.0,26.9,11111222
Walter,ioos:station:wmo:42896:2,2021-08-12T19:21:00Z,28.3100,-89.9229,30.0,27.0,11111222
Walter,ioos:station:wmo:42896:2,2021-08-12T19:31:00Z,28.3100,-89.9229,30.0,27.3,11111222
Walter,ioos:station:wmo:42896:2,2021-08-12T19:41:00Z,28.3100,-89.9229,30.0,27.3,11111222
Walter,ioos:station:wmo:42896:2,2021-08-12T19:51:00Z,28.3100,-89.9229,30.0,27.7,11111222
Walter,ioos:station:wmo:42896:2,2021-08-12T20:01:00Z,28.3100,-89.9229,30.0,27.6,11111222
Walter,ioos:station:wmo:42896:2,2021-08-12T20:11:00Z,28.3100,-89.9229,30.0,27.5,11111222
Walter,ioos:station:wmo:42896:2,2021-08-12T20:21:00Z,28.3100,-89.9229,30.0,27.4,11111222
Walter,ioos:station:wmo:42896:2,2021-08-12T20:31:00Z,28.3100,-89.9229,30.0,27.5,11111222
Walter,ioos:station:wmo:42896:2,2021-08-12T20:41:00Z,28.3100,-89.9229,30.0,27.1,11111222
Walter,ioos:station:wmo:42896:2,2021-08-12T20:51:00Z,28.3100,-89.9229,30.0,27.0,11111222
Walter,ioos:station:wmo:42896:2,2021-08-12T21:01:00Z,28.3100,-89.9229,30.0,27.2,11111222
Walter,ioos:station:wmo:42896:2,2021-08-12T21:11:00Z,28.3100,-89.9229,30.0,27.1,11111222
Walter,ioos:station:wmo:42896:2,2021-08-12T21:21:00Z,28.3100,-89.9229,30.0,26.8,11111222
Walter,ioos:station:wmo:42896:2,2021-08-12T21:31:00Z,28.3100,-89.9229,30.0,26.9,11111222
Walter,ioos:station:wmo:42896:2,2021-08-12T21:41:00Z,28.3100,-89.9229,30.0,26.9,11111222
Walter,ioos:station:wmo:42896:2,2021-08-12T21:51:00Z,28.3100,-89.9229,30.0,26.8,11111222
Walter,ioos:station:wmo:42896:2,2021-08-12T22:01:00Z,28.3100,-89.9229,30.0,27.0,11111222
Walter,ioos:station:wmo:42896:2,2021-08-12T22:11:00Z,28.3100,-89.9229,30.0,27.5,11111222
Walter,ioos:station:wmo:42896:2,2021-08-12T22:21:00Z,28.3100,-89.9229,30.0,27.2,11111222
Walter,ioos:station:wmo:42896:2,2021-08-12T22:31:00Z,28.3100,-89.9229,30.0,27.1,11111222
Walter,ioos:station:wmo:42896:2,2021-08-12T22:41:00Z,28.3100,-89.9229,30.0,27.2,11111222
Walter,ioos:station:wmo:42896:2,2021-08-12T22:51:00Z,28.3100,-89.9229,30.0,27.2,11111222
Walter,ioos:station:wmo:42896:2,2021-08-12T23:01:00Z,28.3100,-89.9229,30.0,27.1,11111222
Walter,ioos:station:wmo:42896:2,2021-08-12T23:11:00Z,28.3100,-89.9229,30.0,26.8,11111222
Walter,ioos:station:wmo:42896:2,2021-08-12T23:21:00Z,28.3100,-89.9229,30.0,26.7,11111222
Walter,ioos:station:wmo:42896:2,2021-08-12T23:31:00Z,28.3100,-89.9229,30.0,26.8,11111222
Walter,ioos:station:wmo:42896:2,2021-08-12T23:41:00Z,28.3100,-89.9229,30.0,26.6,11111222
Walter,ioos:station:wmo:42896:2,2021-08-12T23:51:00Z,28.3100,-89.9229,30.0,26.4,11111222
Walter,ioos:station:wmo:42896:2,2021-08-13T00:01:00Z,28.3100,-89.9229,30.0,26.3,11111222
Walter,ioos:station:wmo:42896:2,2021-08-13T00:11:00Z,28.3100,-89.9229,30.0,26.1,11111222
Walter,ioos:station:wmo:42896:2,2021-08-13T00:21:00Z,28.3100,-89.9229,30.0,25.8,11111222
Walter,ioos:station:wmo:42896:2,2021-08-13T00:31:00Z,28.3100,-89.9229,30.0,26.0,11111222
Walter,ioos:station:wmo:42896:2,2021-08-13T00:41:00Z,28.3100,-89.9229,30.0,26.1,11111222
Walter,ioos:station:wmo:42896:2,2021-08-13T00:51:00Z,28.3100,-89.9229,30.0,26.3,11111222
Walter,ioos:station:wmo:42896:2,2021-08-13T01:01:00Z,28.3100,-89.9229,30.0,26.2,11111222
Walter,ioos:station:wmo:42896:2,2021-08-13T01:11:00Z,28.3100,-89.9229,30.0,26.2,11111222
Walter,ioos:station:wmo:42896:2,2021-08-13T01:21:00Z,28.3100,-89.9229,30.0,26.2,11111222
Walter,ioos:station:wmo:42896:2,2021-08-13T01:31:00Z,28.3100,-89.9229,30.0,26.3,11111222
Walter,ioos:station:wmo:42896:2,2021-08-13T01:41:00Z,28.3100,-89.9229,30.0,26.6,11111222
Walter,ioos:station:wmo:42896:2,2021-08-13T01:51:00Z,28.3100,-89.9229,30.0,26.6,11111222
Walter,ioos:station:wmo:42896:2,2021-08-13T02:01:00Z,28.3100,-89.9229,30.0,26.5,11111222
Walter,ioos:station:wmo:42896:2,2021-08-13T02:11:00Z,28.3100,-89.9229,30.0,26.5,11111222
Walter,ioos:station:wmo:42896:2,2021-08-13T02:21:00Z,28.3100,-89.9229,30.0,26.8,11111222
Walter,ioos:station:wmo:42896:2,2021-08-13T02:31:00Z,28.3100,-89.9229,30.0,26.9,11111222
Walter,ioos:station:wmo:42896:2,2021-08-13T02:41:00Z,28.3100,-89.9229,30.0,27.1,11111222
Walter,ioos:station:wmo:42896:2,2021-08-13T02:51:00Z,28.3100,-89.9229,30.0,27.3,11111222
Walter,ioos:station:wmo:42896:2,2021-08-13T03:01:00Z,28.3100,-89.9229,30.0,26.8,11111222
Walter,ioos:station:wmo:42896:2,2021-08-13T03:11:00Z,28.3100,-89.9229,30.0,26.6,11111222
Walter,ioos:station:wmo:42896:2,2021-08-13T03:21:00Z,28.3100,-89.9229,30.0,26.1,11111222
Walter,ioos:station:wmo:42896:2,2021-08-13T03:31:00Z,28.3100,-89.9229,30.0,26.3,11111222
Walter,ioos:station:wmo:42896:2,2021-08-13T03:41:00Z,28.3100,-89.9229,30.0,26.3,11111222
Walter,ioos:station:wmo:42896:2,2021-08-13T03:51:00Z,28.3100,-89.9229,30.0,26.0,11111222
Walter,ioos:station:wmo:42896:2,2021-08-13T04:01:00Z,28.3100,-89.9229,30.0,26.2,11111222
Walter,ioos:station:wmo:42896:2,2021-08-13T04:11:00Z,28.3100,-89.9229,30.0,26.3,11111222
Walter,ioos:station:wmo:42896:2,2021-08-13T04:21:00Z,28.3100,-89.9229,30.0,26.3,11111222
Walter,ioos:station:wmo:42896:2,2021-08-13T04:31:00Z,28.3100,-89.9229,30.0,26.1,11111222
Walter,ioos:station:wmo:42896:2,2021-08-13T04:41:00Z,28.3100,-89.9229,30.0,26.2,11111222
Walter,ioos:station:wmo:42896:2,2021-08-13T04:51:00Z,28.3100,-89.9229,30.0,26.2,11111222
Walter,ioos:station:wmo:42896:2,2021-08-13T05:01:00Z,28.3100,-89.9229,30.0,26.2,11111222
Walter,ioos:station:wmo:42896:2,2021-08-13T05:16:00Z,28.3100,-89.9229,30.0,26.2,11111222
Walter,ioos:station:wmo:42896:2,2021-08-13T05:17:00Z,28.3099,-89.9229,30.0,26.2,11111222
Walter,ioos:station:wmo:42896:2,2021-08-13T05:29:00Z,28.3099,-89.9230,30.0,26.2,11111222
Walter,ioos:station:wmo:42896:2,2021-08-13T05:34:00Z,28.3099,-89.9230,30.0,26.1,11111222
Walter,ioos:station:wmo:42896:2,2021-08-13T05:39:00Z,28.3099,-89.9230,30.0,26.2,11111222
Walter,ioos:station:wmo:42896:2,2021-08-13T05:49:00Z,28.3099,-89.9230,30.0,26.0,11111222
Walter,ioos:station:wmo:42896:2,2021-08-13T05:59:00Z,28.3099,-89.9230,30.0,25.9,11111222
Walter,ioos:station:wmo:42896:2,2021-08-13T06:09:00Z,28.3099,-89.9230,30.0,25.8,11111222
Walter,ioos:station:wmo:42896:2,2021-08-13T06:19:00Z,28.3099,-89.9230,30.0,25.7,11111222
Walter,ioos:station:wmo:42896:2,2021-08-13T06:29:00Z,28.3099,-89.9230,30.0,25.8,11111222
Walter,ioos:station:wmo:42896:2,2021-08-13T06:39:00Z,28.3099,-89.9230,30.0,26.5,11111222
Walter,ioos:station:wmo:42896:2,2021-08-13T06:49:00Z,28.3099,-89.9230,30.0,26.4,11111222
Walter,ioos:station:wmo:42896:2,2021-08-13T06:59:00Z,28.3099,-89.9230,30.0,26.4,11111222
Walter,ioos:station:wmo:42896:2,2021-08-13T07:09:00Z,28.3099,-89.9230,30.0,26.3,11111222
Walter,ioos:station:wmo:42896:2,2021-08-13T07:19:00Z,28.3099,-89.9230,30.0,26.3,11111222
Walter,ioos:station:wmo:42896:2,2021-08-13T07:29:00Z,28.3099,-89.9230,30.0,26.5,11111222
Walter,ioos:station:wmo:42896:2,2021-08-13T07:39:00Z,28.3099,-89.9230,30.0,26.4,11111222
Walter,ioos:station:wmo:42896:2,2021-08-13T07:49:00Z,28.3099,-89.9230,30.0,26.4,11111222
Walter,ioos:station:wmo:42896:2,2021-08-13T07:59:00Z,28.3099,-89.9230,30.0,26.3,11111222
Walter,ioos:station:wmo:42896:2,2021-08-13T08:09:00Z,28.3099,-89.9230,30.0,26.5,11111222
Walter,ioos:station:wmo:42896:2,2021-08-13T08:19:00Z,28.3099,-89.9230,30.0,26.7,11111222
Walter,ioos:station:wmo:42896:2,2021-08-13T08:29:00Z,28.3099,-89.9230,30.0,26.9,11111222
Walter,ioos:station:wmo:42896:2,2021-08-13T08:39:00Z,28.3099,-89.9230,30.0,27.2,11111222
Walter,ioos:station:wmo:42896:2,2021-08-13T08:49:00Z,28.3099,-89.9230,30.0,27.2,11111222
Walter,ioos:station:wmo:42896:2,2021-08-13T08:59:00Z,28.3099,-89.9230,30.0,26.8,11111222
Walter,ioos:station:wmo:42896:2,2021-08-13T09:09:00Z,28.3099,-89.9230,30.0,26.7,11111222
Walter,ioos:station:wmo:42896:2,2021-08-13T09:19:00Z,28.3099,-89.9230,30.0,27.1,11111222
Walter,ioos:station:wmo:42896:2,2021-08-13T09:29:00Z,28.3099,-89.9230,30.0,27.3,11111222
Walter,ioos:station:wmo:42896:2,2021-08-13T09:39:00Z,28.3099,-89.9230,30.0,27.1,11111222
Walter,ioos:station:wmo:42896:2,2021-08-13T09:49:00Z,28.3099,-89.9230,30.0,27.0,11111222
Walter,ioos:station:wmo:42896:2,2021-08-13T09:59:00Z,28.3099,-89.9230,30.0,26.6,11111222
Walter,ioos:station:wmo:42896:2,2021-08-13T10:09:00Z,28.3099,-89.9230,30.0,26.6,11111222
Walter,ioos:station:wmo:42896:2,2021-08-13T10:19:00Z,28.3099,-89.9230,30.0,26.3,11111222
Walter,ioos:station:wmo:42896:2,2021-08-13T10:29:00Z,28.3099,-89.9230,30.0,26.6,11111222
Walter,ioos:station:wmo:42896:2,2021-08-13T10:39:00Z,28.3099,-89.9230,30.0,26.4,11111222
Walter,ioos:station:wmo:42896:2,2021-08-13T10:49:00Z,28.3099,-89.9230,30.0,26.3,11111222
Walter,ioos:station:wmo:42896:2,2021-08-13T10:59:00Z,28.3099,-89.9230,30.0,26.3,11111222
Walter,ioos:station:wmo:42896:2,2021-08-13T11:09:00Z,28.3099,-89.9230,30.0,26.4,11111222
Walter,ioos:station:wmo:42896:2,2021-08-13T11:19:00Z,28.3099,-89.9230,30.0,26.8,11111222
Walter,ioos:station:wmo:42896:2,2021-08-13T11:29:00Z,28.3099,-89.9230,30.0,26.7,11111222
Walter,ioos:station:wmo:42896:2,2021-08-13T11:39:00Z,28.3099,-89.9230,30.0,26.8,11111222
Walter,ioos:station:wmo:42896:2,2021-08-13T11:49:00Z,28.3099,-89.9230,30.0,26.8,11111222
Walter,ioos:station:wmo:42896:2,2021-08-13T11:59:00Z,28.3099,-89.9230,30.0,26.9,11111222
Walter,ioos:station:wmo:42896:2,2021-08-13T12:09:00Z,28.3099,-89.9230,30.0,26.5,11111222
Walter,ioos:station:wmo:42896:2,2021-08-13T12:19:00Z,28.3099,-89.9230,30.0,26.2,11111222
Walter,ioos:station:wmo:42896:2,2021-08-13T12:29:00Z,28.3099,-89.9230,30.0,26.1,11111222
Walter,ioos:station:wmo:42896:2,2021-08-13T12:39:00Z,28.3099,-89.9230,30.0,26.3,11111222
Walter,ioos:station:wmo:42896:2,2021-08-13T12:49:00Z,28.3099,-89.9230,30.0,26.2,11111222
Walter,ioos:station:wmo:42896:2,2021-08-13T12:59:00Z,28.3099,-89.9230,30.0,26.2,11111222
Walter,ioos:station:wmo:42896:2,2021-08-13T13:09:00Z,28.3099,-89.9230,30.0,26.2,11111222
Walter,ioos:station:wmo:42896:2,2021-08-13T13:19:00Z,28.3099,-89.9230,30.0,26.2,11111222
Walter,ioos:station:wmo:42896:2,2021-08-13T13:29:00Z,28.3099,-89.9230,30.0,26.4,11111222
Walter,ioos:station:wmo:42896:2,2021-08-13T13:39:00Z,28.3099,-89.9230,30.0,26.7,11111222
Walter,ioos:station:wmo:42896:2,2021-08-13T13:49:00Z,28.3099,-89.9230,30.0,26.8,11111222
Walter,ioos:station:wmo:42896:2,2021-08-13T13:59:00Z,28.3099,-89.9230,30.0,27.0,11111222
Walter,ioos:station:wmo:42896:2,2021-08-13T14:09:00Z,28.3099,-89.9230,30.0,26.5,11111222
Walter,ioos:station:wmo:42896:2,2021-08-13T14:19:00Z,28.3099,-89.9230,30.0,26.8,11111222
Walter,ioos:station:wmo:42896:2,2021-08-13T14:29:00Z,28.3099,-89.9230,30.0,26.7,11111222
Walter,ioos:station:wmo:42896:2,2021-08-13T14:39:00Z,28.3099,-89.9230,30.0,26.9,11111222
Walter,ioos:station:wmo:42896:2,2021-08-13T14:49:00Z,28.3099,-89.9230,30.0,26.6,11111222
Walter,ioos:station:wmo:42896:2,2021-08-13T14:59:00Z,28.3099,-89.9230,30.0,26.4,11111222
Walter,ioos:station:wmo:42896:2,2021-08-13T15:09:00Z,28.3099,-89.9230,30.0,26.6,11111222
Walter,ioos:station:wmo:42896:2,2021-08-13T15:19:00Z,28.3099,-89.9230,30.0,26.5,11111222
Walter,ioos:station:wmo:42896:2,2021-08-13T15:29:00Z,28.3099,-89.9230,30.0,26.6,11111222
Walter,ioos:station:wmo:42896:2,2021-08-13T15:39:00Z,28.3099,-89.9230,30.0,26.5,11111222
Walter,ioos:station:wmo:42896:2,2021-08-13T15:49:00Z,28.3099,-89.9230,30.0,26.8,11111222
Walter,ioos:station:wmo:42896:2,2021-08-13T15:59:00Z,28.3099,-89.9230,30.0,26.9,11111222
Walter,ioos:station:wmo:42896:2,2021-08-13T16:09:00Z,28.3099,-89.9230,30.0,27.5,11111222
Walter,ioos:station:wmo:42896:2,2021-08-13T16:19:00Z,28.3099,-89.9230,30.0,27.7,11111222
Walter,ioos:station:wmo:42896:2,2021-08-13T16:29:00Z,28.3099,-89.9230,30.0,27.1,11111222
Walter,ioos:station:wmo:42896:2,2021-08-13T16:39:00Z,28.3099,-89.9230,30.0,27.1,11111222
Walter,ioos:station:wmo:42896:2,2021-08-13T16:49:00Z,28.3099,-89.9230,30.0,27.2,11111222
Walter,ioos:station:wmo:42896:2,2021-08-13T16:59:00Z,28.3099,-89.9230,30.0,27.2,11111222
Walter,ioos:station:wmo:42896:2,2021-08-13T17:09:00Z,28.3099,-89.9230,30.0,27.0,11111222
Walter,ioos:station:wmo:42896:2,2021-08-13T17:19:00Z,28.3099,-89.9230,30.0,26.6,11111222
Walter,ioos:station:wmo:42896:2,2021-08-13T17:29:00Z,28.3099,-89.9230,30.0,26.4,11111222
Walter,ioos:station:wmo:42896:2,2021-08-13T17:39:00Z,28.3099,-89.9230,30.0,26.3,11111222
Walter,ioos:station:wmo:42896:2,2021-08-13T17:49:00Z,28.3099,-89.9230,30.0,26.4,11111222
Walter,ioos:station:wmo:42896:2,2021-08-13T17:59:00Z,28.3099,-89.9230,30.0,26.6,11111222
Walter,ioos:station:wmo:42896:2,2021-08-13T18:09:00Z,28.3099,-89.9230,30.0,26.7,11111222
Walter,ioos:station:wmo:42896:2,2021-08-13T18:19:00Z,28.3099,-89.9230,30.0,27.1,11111222
Walter,ioos:station:wmo:42896:2,2021-08-13T18:29:00Z,28.3099,-89.9230,30.0,26.9,11111222
Walter,ioos:station:wmo:42896:2,2021-08-13T18:39:00Z,28.3099,-89.9230,30.0,26.4,11111222
Walter,ioos:station:wmo:42896:2,2021-08-13T18:49:00Z,28.3099,-89.9230,30.0,26.4,11111222
Walter,ioos:station:wmo:42896:2,2021-08-13T18:59:00Z,28.3099,-89.9230,30.0,26.6,11111222
Walter,ioos:station:wmo:42896:2,2021-08-13T19:09:00Z,28.3099,-89.9230,30.0,26.2,11111222
Walter,ioos:station:wmo:42896:2,2021-08-13T19:19:00Z,28.3099,-89.9230,30.0,26.2,11111222
Walter,ioos:station:wmo:42896:2,2021-08-13T19:29:00Z,28.3099,-89.9230,30.0,26.2,11111222
Walter,ioos:station:wmo:42896:2,2021-08-13T19:39:00Z,28.3099,-89.9230,30.0,26.4,11111222
Walter,ioos:station:wmo:42896:2,2021-08-13T19:49:00Z,28.3099,-89.9230,30.0,26.4,11111222
Walter,ioos:station:wmo:42896:2,2021-08-13T19:59:00Z,28.3099,-89.9230,30.0,27.0,11111222
Walter,ioos:station:wmo:42896:2,2021-08-13T20:09:00Z,28.3099,-89.9230,30.0,26.8,11111222
Walter,ioos:station:wmo:42896:2,2021-08-13T20:19:00Z,28.3099,-89.9230,30.0,26.5,11111222
Walter,ioos:station:wmo:42896:2,2021-08-13T20:29:00Z,28.3099,-89.9230,30.0,26.4,11111222
Walter,ioos:station:wmo:42896:2,2021-08-13T20:39:00Z,28.3099,-89.9230,30.0,26.4,11111222
Walter,ioos:station:wmo:42896:2,2021-08-13T20:49:00Z,28.3099,-89.9230,30.0,26.2,11111222
Walter,ioos:station:wmo:42896:2,2021-08-13T20:59:00Z,28.3099,-89.9230,30.0,26.0,11111222
Walter,ioos:station:wmo:42896:2,2021-08-13T21:09:00Z,28.3099,-89.9230,30.0,25.9,11111222
Walter,ioos:station:wmo:42896:2,2021-08-13T21:19:00Z,28.3099,-89.9230,30.0,25.8,11111222
Walter,ioos:station:wmo:42896:2,2021-08-13T21:29:00Z,28.3099,-89.9230,30.0,26.1,11111222
Walter,ioos:station:wmo:42896:2,2021-08-13T21:39:00Z,28.3099,-89.9230,30.0,26.2,11111222
Walter,ioos:station:wmo:42896:2,2021-08-13T21:49:00Z,28.3099,-89.9230,30.0,26.4,11111222
Walter,ioos:station:wmo:42896:2,2021-08-13T21:59:00Z,28.3099,-89.9230,30.0,26.4,11111222
Walter,ioos:station:wmo:42896:2,2021-08-13T22:09:00Z,28.3099,-89.9230,30.0,26.3,11111222
Walter,ioos:station:wmo:42896:2,2021-08-13T22:19:00Z,28.3099,-89.9230,30.0,26.3,11111222
Walter,ioos:station:wmo:42896:2,2021-08-13T22:29:00Z,28.3099,-89.9230,30.0,26.4,11111222
Walter,ioos:station:wmo:42896:2,2021-08-13T22:39:00Z,28.3099,-89.9230,30.0,26.5,11111222
Walter,ioos:station:wmo:42896:2,2021-08-13T22:49:00Z,28.3099,-89.9230,30.0,26.3,11111222
Walter,ioos:station:wmo:42896:2,2021-08-13T22:59:00Z,28.3099,-89.9230,30.0,26.5,11111222
Walter,ioos:station:wmo:42896:2,2021-08-13T23:09:00Z,28.3099,-89.9230,30.0,26.8,11111222
Walter,ioos:station:wmo:42896:2,2021-08-13T23:19:00Z,28.3099,-89.9230,30.0,26.7,11111222
Walter,ioos:station:wmo:42896:2,2021-08-13T23:29:00Z,28.3099,-89.9230,30.0,26.6,11111222
Walter,ioos:station:wmo:42896:2,2021-08-14T05:09:00Z,28.3099,-89.9230,30.0,26.1,11111222
Walter,ioos:station:wmo:42896:2,2021-08-15T05:09:00Z,28.3099,-89.9230,30.0,24.4,11111222
Walter,ioos:station:wmo:42896:2,2021-08-16T05:09:00Z,28.3099,-89.9230,30.0,25.6,11111222
Walter,ioos:station:wmo:42896:2,2021-08-17T05:09:00Z,28.3099,-89.9230,30.0,26.4,11111222
Walter,ioos:station:wmo:42896:2,2021-08-18T05:09:00Z,28.3099,-89.9230,30.0,25.6,11111222
Walter,ioos:station:wmo:42896:2,2021-08-26T05:00:00Z,28.3098,-89.9230,30.0,29.0,11111222
Walter,ioos:station:wmo:42896:2,2021-08-27T05:00:00Z,28.3098,-89.9230,30.0,29.3,11111222
